Home   Weather   Sibiu   Past weeks

Flag for Romania Past Weather in Sibiu, Romania — Yesterday and Last 2 Weeks

59 °F

Passing clouds.

Feels Like: 59 °F
Forecast: 49 / 55 °F
Wind: No wind

Location: Sibiu Airport

Current Time: Oct 25, 2016 at 6:47:44 PM

Latest Report: Oct 25, 2016 at 6:00 PM

Visibility: N/A

Pressure: 30.24 "Hg

Humidity: 63%

Dew Point: 46 °F

Location of SibiuLocation

Past Weather in Sibiu — Graph


Sibiu Temperature Yesterday

Maximum temperature yesterday: 64 °F (at 2:00 PM)
Minimum temperature yesterday: 34 °F (at 5:00 AM)
Average temperature yesterday: 49 °F

High & Low Weather Summary for the Past Weeks

High64 °F (Oct 24, 2:00 PM)100% (Oct 12, 1:00 AM)30.45 "Hg (Oct 12, 1:00 AM)
Low32 °F (Oct 19, 4:00 AM)44% (Oct 10, 5:00 PM)29.68 "Hg (Oct 12, 11:30 AM)
Average48 °F80%30.12 "Hg
* Reported Oct 10 5:00 PM — Oct 25 5:30 PM, Sibiu, Weather by CustomWeather, © 2016

Note: Actual official high and low records may vary slightly from our data, if they occured in-between our weather recording intervals... More about our weather records


Sibiu Weather History for the Previous 24 Hours

Scroll right to see more
Time TempWeatherWind HumidityBarometerVisibility
5:30 PM
Tue, Oct 25
59 °FSunny.5 mph63%30.24 "Hg10 mi
5:00 PM61 °FSunny.7 mph59%30.24 "Hg10 mi
4:30 PM63 °FSunny.6 mph56%30.24 "Hg10 mi
4:00 PM63 °FSunny.7 mph56%30.21 "Hg10 mi
3:30 PM64 °FSunny.2 mph52%30.24 "Hg10 mi
3:00 PM64 °FSunny.1 mph52%30.24 "Hg10 mi
2:30 PM64 °FSunny.2 mph52%30.24 "Hg10 mi
1:30 PM63 °FSunny.No wind52%30.27 "Hg10 mi
1:00 PM61 °FSunny.1 mph55%30.30 "Hg10 mi
12:30 PM61 °FPassing clouds.3 mph55%30.30 "HgN/A
12:00 PM59 °FSunny.2 mph59%30.30 "Hg10 mi
11:30 AM57 °FSunny.2 mph67%30.30 "Hg10 mi
11:00 AM54 °FSunny.2 mph77%30.30 "Hg10 mi
10:30 AM52 °FSunny.2 mph82%30.30 "Hg10 mi
10:00 AM50 °FSunny.2 mph88%30.30 "Hg10 mi
9:30 AM50 °FSunny.1 mph88%30.30 "Hg10 mi
9:00 AM46 °FSunny.5 mph93%30.30 "Hg10 mi
8:30 AM45 °FSunny.6 mph93%30.30 "Hg10 mi
8:00 AM43 °FSunny.6 mph93%30.30 "Hg10 mi
7:30 AM43 °FClear.6 mph93%30.30 "Hg10 mi
7:00 AM43 °FClear.5 mph93%30.27 "Hg10 mi
6:30 AM43 °FPassing clouds.5 mph93%30.27 "HgN/A
6:00 AM39 °FPassing clouds.1 mph93%30.30 "Hg5 mi
5:00 AM41 °FPassing clouds.1 mph93%30.30 "Hg5 mi
4:00 AM39 °FClear.6 mph100%30.30 "Hg5 mi
3:00 AM41 °FPassing clouds.No wind93%30.30 "HgN/A
2:00 AM45 °FPassing clouds.3 mph93%30.30 "HgN/A
1:00 AM45 °FClear.5 mph93%30.33 "Hg10 mi
12:00 AM43 °FClear.3 mph87%30.30 "Hg10 mi
10:00 PM
Mon, Oct 24
45 °FClear.2 mph87%30.30 "Hg10 mi
9:00 PM46 °FClear.No wind87%30.30 "Hg10 mi
8:30 PM50 °FClear.2 mph82%30.30 "Hg10 mi
8:00 PM52 °FClear.3 mph77%30.30 "Hg10 mi
7:30 PM54 °FClear.3 mph72%30.27 "Hg10 mi
7:00 PM54 °FClear.5 mph72%30.27 "Hg10 mi
6:30 PM55 °FClear.6 mph67%30.27 "Hg10 mi
6:00 PM57 °FSunny.6 mph67%30.27 "Hg10 mi
Weather by CustomWeather, © 2016

See weather overviewHow to use our weather pages